Flag for Venezuela Weather past 2 weeks in Caracas, Venezuela

Now
81 °F

Scattered clouds.


Feels Like: 84 °F
Forecast: 64 / 78 °F
Wind: No wind

Location: Caracas / Maiquetia Aerop. Intl. Simon Bolivar

Current Time: Sep 30, 2014 at 8:14:09 AM

Latest Report: Sep 30, 2014 at 7:30 AM


Visibility: N/A

Pressure: 29.80 "Hg

Humidity: 70%

Dew point: 70 °F

Location of CaracasLocation

Historic Weather in Caracas — Graph

°F

Caracas temperature yesterday

Maximum temperature yesterday: 93 °F (at 1:30 PM)
Minimum temperature yesterday: 79 °F (at 4:30 AM)
Average temperature yesterday: 85 °F

Past Weeks' High & Low Weather Summary

 TemperatureHumidityPressure
High93 °F (Sep 29, 1:30 PM)89% (Sep 15, 5:30 PM)29.92 "Hg (Sep 15, 5:30 PM)
Low75 °F (Sep 19, 6:30 AM)44% (Sep 23, 1:30 PM)29.68 "Hg (Sep 26, 4:30 PM)
Average82 °F76%29.80 "Hg
* Reported Sep 15 7:30 AM — Sep 30 7:30 AM, Caracas, Weather by CustomWeather, © 2014

Note: Actual official high and low records may vary slightly from our data, if they occured in-between our weather recording intervals... More about our weather records

Advertising

Caracas weather history for previous 24 hours

 ConditionsComfort  
Time TempWeatherWind HumidityBarometerVisibility
7:30 AM
Sep 30
81 °FScattered clouds.No wind70%29.80 "HgN/A
6:30 AM79 °FPassing clouds.No wind79%29.89 "HgN/A
5:30 AM79 °FPassing clouds.No wind79%29.86 "HgN/A
4:30 AM79 °FPassing clouds.No wind74%29.83 "HgN/A
3:30 AM81 °FPassing clouds.No wind74%29.83 "HgN/A
2:30 AM81 °FPassing clouds.No wind74%29.83 "HgN/A
1:30 AM81 °FPassing clouds.No wind84%29.83 "HgN/A
12:30 AM81 °FPassing clouds.1 mph84%29.86 "HgN/A
11:30 PM
Sep 29
81 °FPassing clouds.No wind89%29.86 "HgN/A
10:30 PM82 °FPassing clouds.No wind79%29.89 "HgN/A
9:30 PM82 °FPassing clouds.5 mph79%29.83 "HgN/A
8:30 PM84 °FPassing clouds.3 mph79%29.83 "HgN/A
7:30 PM84 °FPassing clouds.3 mph79%29.83 "HgN/A
6:30 PM86 °FPassing clouds.6 mph75%29.80 "HgN/A
5:30 PM86 °FPassing clouds.3 mph75%29.80 "HgN/A
4:30 PM90 °FPassing clouds.7 mph63%29.80 "HgN/A
3:30 PM91 °FPassing clouds.8 mph59%29.80 "HgN/A
2:30 PM91 °FPassing clouds.6 mph56%29.80 "HgN/A
1:30 PM93 °FPassing clouds.8 mph56%29.80 "HgN/A
12:30 PM88 °FPassing clouds.3 mph55%29.83 "HgN/A
11:30 AM90 °FPassing clouds.6 mph55%29.83 "HgN/A
10:30 AM90 °FPassing clouds.2 mph52%29.86 "HgN/A
9:30 AM88 °FPassing clouds.5 mph70%29.83 "HgN/A
8:30 AM84 °FPassing clouds.No wind74%29.80 "HgN/A
Weather by CustomWeather, © 2014

See weather overviewHow to use our weather pages